Andover, NJ

10:04 PM EDT on March 22, 2017 (GMT -0400)
Andover

Weather History for K12N - January, 2012

Change the Weather History Date:

Thursday, January 5, 2012

  Actual Average (KFWN) Record (KFWN)
Temperature  
Mean Temperature 28 °F -  
Max Temperature 37 °F 36 °F 62 °F (1950)
Min Temperature 19 °F 15 °F -16 °F (1981)
Degree Days  
Heating Degree Days 37    
Moisture  
Dew Point 18 °F    
Average Humidity 64    
Maximum Humidity 88    
Minimum Humidity 46    
Precipitation  
Precipitation 0.00 in - - ()
Sea Level Pressure  
Sea Level Pressure 29.94 in    
Wind  
Wind Speed 2 mph (WSW)    
Max Wind Speed 9 mph    
Max Gust Speed 16 mph    
Averages and records for this station are not official NWS values.
T = Trace of Precipitation, MM = Missing Value Source: NWS Daily Summary

Daily Weather History Graph

Daily Weather History Graph

Search for Another Location

Airport or City:

Trip Planner

Search our weather history database for the weather conditions in past years. The results will help you decide how hot, cold, wet, or windy it might be!

Date:

Astronomy

Jan. 05, 2012 Rise Set
Actual Time 7:24 AM EST 4:44 PM EST
Civil Twilight 6:53 AM EST 5:15 PM EST
Nautical Twilight 6:18 AM EST 5:49 PM EST
Astronomical Twilight 5:45 AM EST 6:23 PM EST
Moon 1:46 PM EST (1/5) 4:06 AM EST (1/5)
Length of Visible Light 10h 22m
Length of Day
9h 20m
Waxing Gibbous, 87% of the Moon is Illuminated
Jan 5
Waxing Gibbous
Jan 9
Full
Jan 16
Last Quarter
Jan 23
New
Jan 30
First Quarter

Hourly Weather History & Observations

Time (EST) Temp. Windchill Dew Point Humidity Pressure Visibility Wind Dir Wind Speed Gust Speed Precip Events Conditions
12:54 AM 19.0 °F - 12.0 °F 74% 29.97 in - Calm Calm - N/A   Unknown
1:54 AM 21.0 °F - 12.0 °F 68% 29.95 in - Calm Calm - N/A   Unknown
2:54 AM 23.0 °F - 12.9 °F 65% 29.93 in - Calm Calm - N/A   Unknown
3:54 AM 23.0 °F - 12.9 °F 65% 29.92 in - Calm Calm - N/A   Unknown
4:54 AM 24.1 °F - 12.9 °F 62% 29.91 in - Calm Calm - N/A   Unknown
5:54 AM 24.1 °F - 15.1 °F 69% 29.92 in - Calm Calm - N/A   Unknown
6:54 AM 25.0 °F 20.7 °F 14.0 °F 63% 29.94 in - SSW 3.5 mph - N/A   Unknown
7:54 AM 26.1 °F - 15.1 °F 63% 29.95 in - Calm Calm - N/A   Unknown
8:54 AM 26.1 °F - 16.0 °F 66% 29.97 in - Calm Calm - N/A   Unknown
9:54 AM 30.0 °F 24.1 °F 19.0 °F 64% 29.95 in - SSW 5.8 mph - N/A   Unknown
10:54 AM 34.0 °F 28.0 °F 19.0 °F 54% 29.92 in - WSW 6.9 mph - N/A   Unknown
11:54 AM 35.1 °F 27.9 °F 19.9 °F 54% 29.88 in - SW 9.2 mph 16.1 mph N/A   Unknown
12:54 PM 37.0 °F 31.6 °F 18.0 °F 46% 29.88 in - Variable 6.9 mph - N/A   Unknown
1:54 PM 37.0 °F 31.0 °F 18.0 °F 46% 29.89 in - WNW 8.1 mph - N/A   Unknown
2:54 PM 37.0 °F 34.5 °F 19.0 °F 48% 29.90 in - NNW 3.5 mph - N/A   Unknown
3:54 PM 36.0 °F 32.1 °F 19.0 °F 50% 29.92 in - Variable 4.6 mph - N/A   Unknown
4:54 PM 35.1 °F 31.0 °F 19.9 °F 54% 29.94 in - Variable 4.6 mph - N/A   Unknown
5:54 PM 35.1 °F 31.0 °F 21.0 °F 57% 29.96 in - WSW 4.6 mph - N/A   Unknown
6:54 PM 34.0 °F - 21.0 °F 59% 29.96 in - Calm Calm - N/A   Unknown
7:54 PM 30.0 °F - 21.0 °F 69% 29.98 in - Calm Calm - N/A   Unknown
8:54 PM 28.0 °F - 21.9 °F 78% 29.99 in - Calm Calm - N/A   Unknown
9:54 PM 26.1 °F - 21.9 °F 84% 30.00 in - Calm Calm - N/A   Unknown
10:54 PM 26.1 °F - 21.9 °F 84% 29.98 in - Calm Calm - N/A   Unknown
11:54 PM 25.0 °F - 21.9 °F 88% 29.96 in - Calm Calm - N/A   Unknown